User: anonymous   Login
Location: Lake Superior Provincial Park
(47.3335°N, 84.6162°W)
Time: 18:08:50
(UTC-04:00)
Language:

Cosmos 2333 Rocket - Orbit

View from above orbital plane
View from above orbital plane
View from above satellite
View from above satellite

Ground track
Ground track

The orbit data is extracted from the following two-line orbital elements,

1 24298U 96051B   15147.63167799 -.00000166  00000-0 -63438-4 0  9995
2 24298 070.8449 206.4078 0017879 225.4359 289.5315 14.12418569965709
Epoch (UTC): 27 May 2015 15:09:36
Eccentricity: 0.0017879
inclination: 70.8449°
perigee height: 838 km
apogee height: 864 km
right ascension of ascending node: 206.4078°
argument of perigee: 225.4359°
revolutions per day: 14.12418569
mean anomaly at epoch: 289.5315°
orbit number at epoch: 96570

The dashed part of the orbit path shows where the satellite is in the earth's shadow,  

DLR